Home > Weather > San Andrés > Past weeks

Flag for Colombia Past Weather in San Andrés, Colombia — Yesterday and Last 2 Weeks

Now
86 °F

Partly sunny.


Feels Like: 95 °F
Forecast: N/A
Wind: 5 mph from Southeast

Location: San Andres Isla / Sesquicentenario

Current Time: Aug 28, 2016 at 5:38:53 PM

Latest Report: Aug 28, 2016 at 5:00 PM


Visibility: N/A

Pressure: 29.78 "Hg

Humidity: 70%

Dew Point: 75 °F

Location of San AndrésLocation

Past Weather in San Andrés — Graph

°F

San Andrés Temperature Yesterday

Maximum temperature yesterday: 88 °F (at 12:00 PM)
Minimum temperature yesterday: 77 °F (at 5:00 AM)
Average temperature yesterday: 83 °F

High & Low Weather Summary for the Past Weeks

 TemperatureHumidityPressure
High90 °F (Aug 16, 1:00 PM)94% (Aug 27, 5:00 AM)29.98 "Hg (Aug 27, 5:00 AM)
Low77 °F (Aug 27, 5:00 AM)62% (Aug 27, 12:00 PM)29.76 "Hg (Aug 13, 5:00 PM)
Average85 °F80%29.85 "Hg
* Reported Aug 13 4:00 PM — Aug 28 4:00 PM, San Andrés, Weather by CustomWeather, © 2016

Note: Actual official high and low records may vary slightly from our data, if they occured in-between our weather recording intervals... More about our weather records

Advertising

San Andrés Weather History for the Previous 24 Hours

Scroll right to see more
 ConditionsComfort  
Time TempWeatherWind HumidityBarometerVisibility
4:00 PM
Sun, Aug 28
86 °FOvercast.5 mph75%29.80 "HgN/A
3:00 PM86 °FPartly sunny.6 mph75%29.82 "HgN/A
2:00 PM88 °FPartly sunny.6 mph70%29.85 "HgN/A
1:00 PM90 °FPassing clouds.7 mph67%29.87 "HgN/A
12:00 PM90 °FScattered clouds.7 mph67%29.89 "HgN/A
11:00 AM88 °FScattered clouds.5 mph66%29.90 "HgN/A
10:00 AM88 °FScattered clouds.5 mph70%29.91 "HgN/A
9:00 AM86 °FPassing clouds.3 mph70%29.90 "HgN/A
8:00 AM86 °FPassing clouds.3 mph70%29.87 "HgN/A
7:00 AM82 °FPassing clouds.2 mph84%29.85 "HgN/A
6:00 AM82 °FPassing clouds.2 mph84%29.84 "HgN/A
5:00 AM82 °FPassing clouds.3 mph84%29.83 "HgN/A
4:00 AM82 °FPassing clouds.3 mph84%29.81 "HgN/A
3:00 AM82 °FPassing clouds.3 mph84%29.82 "HgN/A
2:00 AM82 °FPassing clouds.3 mph84%29.84 "HgN/A
1:00 AM82 °FPassing clouds.3 mph84%29.85 "HgN/A
12:00 AM82 °FPassing clouds.2 mph84%29.86 "HgN/A
11:00 PM
Sat, Aug 27
81 °FPassing clouds.2 mph89%29.87 "HgN/A
10:00 PM81 °FPassing clouds.2 mph89%29.86 "HgN/A
9:00 PM82 °FPassing clouds.2 mph89%29.85 "HgN/A
8:00 PM82 °FPassing clouds.2 mph84%29.82 "HgN/A
7:00 PM82 °FPassing clouds.2 mph89%29.80 "HgN/A
6:00 PM86 °FPassing clouds.2 mph70%29.78 "HgN/A
5:00 PM88 °FPassing clouds.2 mph66%29.78 "HgN/A
Weather by CustomWeather, © 2016

See weather overviewHow to use our weather pages